Location: Newark
(45.2500°N, 7.5833°E)
Time: 06:38:22
(UTC+00:00)

Explorer 11/Cluster Stage 4 - Visible Passes

Search period start: 24 January 2020 00:00
Search period end: 03 February 2020 00:00
Orbit: 467 x 1259 km, 28.8° (Epoch: 23 January)

Date Brightness Start Highest point End Pass type
(mag) Time Alt. Az. Time Alt. Az. Time Alt. Az.
24 Jan 9.2 17:28:45 10° SW 17:32:13 14° SSW 17:35:25 10° SSE visible
25 Jan 9.4 17:17:46 10° SW 17:21:17 14° SSW 17:24:31 10° S visible
26 Jan 9.5 17:06:52 10° SW 17:10:18 14° SSW 17:13:30 10° S visible
27 Jan 9.6 16:56:02 10° SW 16:59:18 13° SSW 17:02:23 10° S visible
